Location: Writing-on-Stone Provincial Park
(49.0825°N, 111.6163°W)
Time: 12:12:11
(UTC-06:00)

Amateur Radio Satellites - All Passes

Search period start: 30 July 2015 11:42
Search period end: 31 July 2015 11:42
Location: Writing-on-Stone Provincial Park, 49.0825°N, 111.6163°W

Satellite Date Start Highest point End Downlink Frequencies (MHz)
Time Altitude Azimuth
BUGSAT 1 30 Jul 11:43:58 11:47:58 61° 73° (ENE) 11:51:58 437.445
DOVE 4 30 Jul 11:45:35 11:48:14 15° 300° (WNW) 11:50:49 437.250
HO-68 30 Jul 11:46:22 11:52:52 37° 301° (WNW) 11:59:15 435.675
HUMSAT D 30 Jul 11:50:04 11:54:20 56° 100° (E) 11:58:37 437.325/437.525
DX 1 30 Jul 11:51:31 11:55:36 39° 98° (E) 11:59:40 434.975-435.025
Cosmos 2491 30 Jul 11:57:54 12:04:27 25° 79° (E) 12:11:15 435.465 / 435.565
VELOX 1 30 Jul 11:58:15 12:02:05 28° 95° (E) 12:05:55 145.980
ESTCUBE 1 30 Jul 12:01:56 12:05:31 23° 92° (E) 12:09:10 437.505/2401.250
DELFI C3 30 Jul 12:02:10 12:06:03 43° 290° (WNW) 12:09:54 145.870
AAUSAT CUBESAT 2 30 Jul 12:02:39 12:05:30 18° 298° (WNW) 12:08:15 437.432
DUCHIFAT 1 30 Jul 12:02:55 12:07:02 57° 259° (W) 12:11:10 145.980
QB50P1 30 Jul 12:04:37 12:08:44 52° 260° (W) 12:12:52 145.935-145.965
NANOSAT C BR1 30 Jul 12:06:43 12:10:49 51° 260° (W) 12:14:56 145.865
50 SAT 30 Jul 12:08:54 12:12:43 42° 98° (E) 12:16:31 437.505
CINEMA 3 30 Jul 12:09:33 12:12:43 18° 298° (WNW) 12:15:50 145.822/145.860
ZACube-1 30 Jul 12:22:38 12:26:44 34° 293° (WNW) 12:30:51 437.345
SPROUT 30 Jul 12:25:15 12:26:11 11° 85° (E) 12:27:21 437.525
UNISAT 6 30 Jul 12:30:17 12:32:52 15° 273° (W) 12:35:20 437.425
UWE-3 30 Jul 12:42:31 12:45:53 20° 298° (WNW) 12:49:12 435.000/436.395/437.385
TISAT 1 30 Jul 12:45:18 12:45:58 10° 85° (E) 12:46:52 437.305
FUNcube-1 30 Jul 12:45:40 12:49:15 23° 296° (WNW) 12:52:47 145.935
POLYITAN 1 30 Jul 12:47:58 12:51:10 20° 269° (W) 12:54:17 437.675
SO-50 30 Jul 12:49:23 12:53:39 29° 327° (NNW) 12:57:58 436.795
AIST 1 30 Jul 12:54:08 12:58:20 48° 94° (E) 13:02:32
CUBEBUG 2 30 Jul 12:54:34 12:57:01 14° 301° (WNW) 12:59:20 437.445
AISAT 30 Jul 12:54:39 12:59:05 80° 285° (WNW) 13:03:30 437.250
Oscar 19 30 Jul 12:55:31 12:59:54 30° 63° (ENE) 13:04:22 437.125/150
Cosmos 2504 30 Jul 12:56:36 13:02:33 22° 56° (NE) 13:08:58 435.465 / 435.565
O/OREOS (USA 219) 30 Jul 12:59:55 13:04:12 38° 252° (WSW) 13:08:25 437.305
UKube-1 30 Jul 13:02:38 13:06:48 46° 291° (WNW) 13:10:55 .
Oscar 11 30 Jul 13:03:58 13:05:20 11° 304° (WNW) 13:06:31 145.826/435.025
PCSat 30 Jul 13:05:11 13:09:17 21° 330° (NNW) 13:13:21 145.827
POPSAT HIP 1 30 Jul 13:06:59 13:09:19 14° 273° (W) 13:11:28 437.405
YUBILEINY 30 Jul 13:14:34 13:23:14 62° 267° (W) 13:31:50 435.215
QB50P2 30 Jul 13:15:02 13:16:36 11° 274° (W) 13:17:57 145.880/145.840
CUBEBUG 1 30 Jul 13:15:07 13:19:29 83° 286° (WNW) 13:23:48 437.445
BUGSAT 1 30 Jul 13:21:36 13:23:53 14° 272° (W) 13:26:02 437.445
HUMSAT D 30 Jul 13:26:37 13:29:43 19° 298° (WNW) 13:32:43 437.325/437.525
AO-7 30 Jul 13:26:57 13:31:16 16° 35° (NE) 13:35:52 29.400- 29.500
DX 1 30 Jul 13:28:03 13:31:41 26° 296° (WNW) 13:35:15 434.975-435.025
VELOX 1 30 Jul 13:34:39 13:38:41 35° 293° (WNW) 13:42:40 145.980
HO-68 30 Jul 13:37:16 13:38:43 11° 324° (NW) 13:39:52 435.675
ESTCUBE 1 30 Jul 13:38:19 13:42:37 44° 291° (WNW) 13:46:51 437.505/2401.250
Gurwin Techsat 1B 30 Jul 13:39:10 13:43:24 25° 61° (ENE) 13:47:45 435.225
50 SAT 30 Jul 13:44:00 13:47:03 21° 296° (WNW) 13:50:01 437.505
Cosmos 2491 30 Jul 13:51:37 14:00:26 83° 282° (WNW) 14:09:14 435.465 / 435.565
SPROUT 30 Jul 13:58:41 14:03:00 89° 285° (WNW) 14:07:18 437.525
BEESAT 30 Jul 14:02:01 14:04:12 13° 86° (E) 14:06:36 436.000
ITAMSAT 1 30 Jul 14:11:44 14:16:34 40° 66° (ENE) 14:21:27 435.822/435.867
TISAT 1 30 Jul 14:18:13 14:22:27 89° 285° (WNW) 14:26:40 437.305
SWISSCUBE 30 Jul 14:21:13 14:24:51 22° 91° (E) 14:28:34 437.505
JAS-2 30 Jul 14:21:25 14:26:35 28° 56° (NE) 14:32:23 435.910
AIST 1 30 Jul 14:33:02 14:36:18 20° 294° (WNW) 14:39:28
SO-50 30 Jul 14:33:05 14:35:46 14° 351° (N) 14:38:25 436.795
AISAT 30 Jul 14:33:15 14:34:59 12° 304° (NW) 14:36:33 437.250
Oscar 19 30 Jul 14:34:13 14:39:06 44° 262° (W) 14:44:02 437.125/150
ITUPSAT 1 30 Jul 14:40:55 14:45:05 29° 94° (E) 14:49:16 437.325
Cosmos 2504 30 Jul 14:47:55 14:56:14 80° 79° (E) 15:04:54 435.465 / 435.565
PCSat 30 Jul 14:53:00 14:54:53 12° 356° (N) 14:56:43 145.827
CUBEBUG 1 30 Jul 14:53:28 14:55:11 12° 303° (WNW) 14:56:43 437.445
YUBILEINY 30 Jul 15:14:10 15:18:21 14° 289° (WNW) 15:21:59 435.215
AO-7 30 Jul 15:14:21 15:22:11 47° 58° (ENE) 15:30:05 29.400- 29.500
Gurwin Techsat 1B 30 Jul 15:17:50 15:23:04 58° 259° (W) 15:28:21 435.225
KKS-1 30 Jul 15:24:05 15:26:33 15° 88° (E) 15:29:11 437.445
HORYU 2 30 Jul 15:31:26 15:35:18 31° 66° (ENE) 15:39:16 437.375
DANDE 30 Jul 15:32:14 15:34:55 22° 72° (ENE) 15:38:14 436.750
SPROUT 30 Jul 15:36:31 15:38:28 13° 302° (WNW) 15:40:17 437.525
BEESAT 30 Jul 15:37:58 15:42:48 86° 284° (WNW) 15:47:35 436.000
ITAMSAT 1 30 Jul 15:51:27 15:56:10 33° 265° (W) 16:00:52 435.822/435.867
Cosmos 2491 30 Jul 15:52:13 15:58:57 23° 306° (NW) 16:05:22 435.465 / 435.565
TISAT 1 30 Jul 15:55:48 15:57:37 12° 302° (WNW) 15:59:17 437.305
SWISSCUBE 30 Jul 15:58:23 16:03:04 53° 290° (WNW) 16:07:41 437.505
GONETS M04 30 Jul 15:59:29 16:05:06 19° 50° (NE) 16:11:04
CUSAT 1 30 Jul 16:04:50 16:08:32 84° 77° (ENE) 16:13:27 437.405
JAS-2 30 Jul 16:04:56 16:11:03 70° 259° (WSW) 16:18:03 435.910
SO-50 30 Jul 16:15:13 16:18:14 16° 15° (NNE) 16:21:18 436.795
ITUPSAT 1 30 Jul 16:18:36 16:23:06 40° 293° (WNW) 16:27:31 437.325
STARS 30 Jul 16:37:00 16:41:15 45° 99° (E) 16:45:31 437.465
PCSat 30 Jul 16:37:20 16:40:38 16° 22° (NNE) 16:44:01 145.827
Cosmos 2504 30 Jul 16:41:05 16:47:45 27° 279° (W) 16:54:21 435.465 / 435.565
KKS-1 30 Jul 16:59:16 17:03:44 70° 287° (WNW) 17:08:10 437.445
Cosmos 2499 30 Jul 17:00:37 17:03:29 12° 42° (NE) 17:06:54 435.465 / 435.565
AO-7 30 Jul 17:06:52 17:15:00 51° 260° (W) 17:23:06 29.400- 29.500
CUTE-I 30 Jul 17:07:08 17:10:21 17° 55° (NE) 17:13:45 437.470
HORYU 2 30 Jul 17:07:50 17:11:54 34° 264° (W) 17:15:59 437.375
DANDE 30 Jul 17:15:01 17:18:00 27° 262° (W) 17:21:38 436.750
BEESAT 30 Jul 17:17:21 17:19:59 14° 304° (NW) 17:22:25 436.000
MOZHAYETS 4 30 Jul 17:37:02 17:41:27 42° 97° (E) 17:45:51
Cubesat XI-IV 30 Jul 17:48:43 17:53:26 33° 64° (ENE) 17:58:14 437.490
JAS-2 30 Jul 17:54:45 17:57:51 13° 283° (WNW) 18:00:41 435.910
GONETS M04 30 Jul 17:55:18 18:04:01 70° 76° (ENE) 18:12:44
SO-50 30 Jul 17:55:29 18:00:08 38° 38° (NE) 18:04:45 436.795
STARS 30 Jul 18:13:55 18:17:29 23° 297° (WNW) 18:20:56 437.465
PCSat 30 Jul 18:20:13 18:25:28 46° 46° (NE) 18:30:42 145.827
KKS-1 30 Jul 18:38:23 18:39:37 11° 305° (NW) 18:40:40 437.445
CUTE-I 30 Jul 18:44:22 18:49:45 86° 76° (ENE) 18:55:10 437.470
HO-68 30 Jul 18:47:03 18:51:16 17° 46° (NE) 18:55:43 435.675
Cosmos 2499 30 Jul 18:51:23 18:59:32 45° 68° (ENE) 19:07:59 435.465 / 435.565
MOZHAYETS 4 30 Jul 19:14:36 19:18:31 27° 296° (WNW) 19:22:20
STRAND 1 30 Jul 19:16:20 19:19:00 15° 86° (E) 19:21:54 437.568
BRITE-PL 30 Jul 19:23:37 19:27:14 27° 66° (ENE) 19:30:49 437.365/2234.400
CANX-2 30 Jul 19:26:01 19:27:12 11° 57° (ENE) 19:28:35 2200.000
CUBESAT XI-V 30 Jul 19:26:17 19:30:47 49° 99° (E) 19:35:15 437.345
Cubesat XI-IV 30 Jul 19:28:20 19:33:27 43° 262° (W) 19:38:34 437.490
SO-50 30 Jul 19:36:03 19:40:49 45° 239° (WSW) 19:45:27 436.795
PRISM 30 Jul 19:40:16 19:42:51 16° 90° (E) 19:45:31 437.425
DOVE 4 30 Jul 19:40:54 19:43:21 16° 61° (ENE) 19:45:56 437.250
GOMX 1 30 Jul 19:43:11 19:46:36 25° 66° (ENE) 19:50:02 467.674
GONETS M04 30 Jul 19:52:55 20:00:16 31° 278° (W) 20:07:27
CINEMA 3 30 Jul 20:03:07 20:04:56 13° 58° (ENE) 20:06:57 145.822/145.860
PCSat 30 Jul 20:03:52 20:08:49 36° 246° (WSW) 20:13:43 145.827
RS-15 30 Jul 20:19:57 20:21:10 10° 93° (E) 20:23:28 29.354- 29.394
VERMONT LUNAR 30 Jul 20:27:24 20:28:44 12° 163° (SSE) 20:30:07 437.305
CUTE-I 30 Jul 20:27:24 20:30:39 15° 274° (W) 20:33:40 437.470
HO-68 30 Jul 20:30:47 20:37:47 63° 67° (ENE) 20:44:52 435.675
UWE-3 30 Jul 20:33:50 20:34:45 11° 56° (NE) 20:35:51 435.000/436.395/437.385
COMPASS 1 30 Jul 20:38:08 20:41:49 30° 67° (ENE) 20:45:34 437.405
CUBEBUG 2 30 Jul 20:44:04 20:46:38 16° 60° (ENE) 20:49:21 437.445
Cosmos 2499 30 Jul 20:44:37 20:52:56 52° 270° (W) 21:01:23 435.465 / 435.565
Oscar 11 30 Jul 20:49:32 20:52:31 19° 61° (ENE) 20:55:35 145.826/435.025
SEEDS 30 Jul 20:50:00 20:54:05 48° 71° (ENE) 20:58:14 437.485
CUTE 1.7 + AOD 2 30 Jul 20:50:06 20:54:18 58° 73° (ENE) 20:58:33 437.475
STRAND 1 30 Jul 20:53:51 20:59:01 86° 283° (WNW) 21:04:07 437.568
CANX-2 30 Jul 20:58:10 21:02:26 78° 75° (ENE) 21:06:45 2200.000
BRITE-PL 30 Jul 21:01:42 21:05:45 34° 264° (W) 21:09:36 437.365/2234.400
CUBESAT XI-V 30 Jul 21:04:17 21:07:58 23° 297° (WNW) 21:11:32 437.345
PRISM 30 Jul 21:14:37 21:18:40 55° 289° (WNW) 21:22:41 437.425
DOVE 4 30 Jul 21:16:36 21:20:43 63° 259° (W) 21:24:51 437.250
DELFI C3 30 Jul 21:18:48 21:21:57 23° 65° (ENE) 21:25:12 145.870
AAUSAT CUBESAT 2 30 Jul 21:20:25 21:24:35 67° 74° (ENE) 21:28:48 437.432
GOMX 1 30 Jul 21:20:45 21:24:40 36° 263° (W) 21:28:31 467.674
CINEMA 3 30 Jul 21:37:24 21:41:33 84° 256° (WSW) 21:45:50 145.822/145.860
ZACube-1 30 Jul 21:46:21 21:50:13 38° 69° (ENE) 21:54:15 437.345
PHONESAT 2.4 30 Jul 21:52:48 21:53:56 11° 159° (SSE) 21:55:06 2401.200-2431.200
ISS 30 Jul 21:53:34 21:54:28 11° 136° (SE) 21:55:29 145.825
Cosmos 2491 30 Jul 22:01:19 22:06:26 17° 48° (NE) 22:11:55 435.465 / 435.565
VERMONT LUNAR 30 Jul 22:02:33 22:04:47 18° 180° (S) 22:07:01 437.305
UWE-3 30 Jul 22:06:21 22:10:32 76° 74° (ENE) 22:14:51 435.000/436.395/437.385
FUNcube-1 30 Jul 22:08:28 22:12:36 61° 73° (ENE) 22:16:51 145.935
COMPASS 1 30 Jul 22:13:40 22:17:27 31° 265° (W) 22:21:14 437.405
M-CUBED/EXP-1 PRIME 30 Jul 22:14:17 22:17:41 19° 94° (E) 22:21:11 437.505
CUBEBUG 2 30 Jul 22:18:43 22:22:52 65° 259° (W) 22:27:09 437.445
HO-68 30 Jul 22:19:49 22:26:03 31° 267° (W) 22:32:12 435.675
RS-15 30 Jul 22:20:34 22:30:50 51° 115° (ESE) 22:41:37 29.354- 29.394
AISAT 30 Jul 22:21:10 22:24:23 21° 62° (ENE) 22:27:41 437.250
Oscar 11 30 Jul 22:24:01 22:28:18 59° 260° (W) 22:32:38 145.826/435.025
UKube-1 30 Jul 22:25:38 22:29:25 31° 66° (ENE) 22:33:15 .
SEEDS 30 Jul 22:26:59 22:30:10 20° 270° (W) 22:33:16 437.485
CUTE 1.7 + AOD 2 30 Jul 22:27:49 22:30:39 17° 272° (W) 22:33:21 437.475
STRAND 1 30 Jul 22:34:29 22:37:33 16° 305° (NW) 22:40:26 437.568
CANX-2 30 Jul 22:37:00 22:38:59 13° 274° (W) 22:40:47 2200.000
CUBEBUG 1 30 Jul 22:40:28 22:43:24 18° 61° (ENE) 22:46:26 437.445
UNISAT 6 30 Jul 22:40:54 22:42:28 12° 84° (E) 22:44:18 437.425
Cosmos 2499 30 Jul 22:41:32 22:44:19 11° 290° (WNW) 22:46:30 435.465 / 435.565
AUBIESAT-1 30 Jul 22:44:41 22:48:53 31° 99° (E) 22:53:05 437.475
HUMSAT D 30 Jul 22:45:32 22:49:38 66° 74° (ENE) 22:53:50 437.325/437.525
DX 1 30 Jul 22:50:48 22:55:03 58° 72° (ENE) 22:59:20 434.975-435.025
DELFI C3 30 Jul 22:52:58 22:56:49 40° 263° (W) 23:00:42 145.870
50 SAT 30 Jul 22:56:25 23:00:05 41° 70° (ENE) 23:03:50 437.505
AIST 1 30 Jul 22:57:33 23:00:39 19° 66° (ENE) 23:03:48
AAUSAT CUBESAT 2 30 Jul 22:58:23 23:00:42 14° 273° (W) 23:02:53 437.432
VELOX 1 30 Jul 22:59:33 23:03:42 42° 69° (ENE) 23:07:54 145.980
ESTCUBE 1 30 Jul 23:05:15 23:09:22 36° 67° (ENE) 23:13:32 437.505/2401.250
QB50P2 30 Jul 23:19:55 23:20:21 10° 85° (E) 23:21:02 145.880/145.840
SPROUT 30 Jul 23:22:44 23:25:13 16° 60° (ENE) 23:27:51 437.525
TIGRISAT 30 Jul 23:23:04 23:27:04 28° 93° (E) 23:31:09 435.000
ZACube-1 30 Jul 23:23:15 23:26:44 24° 268° (W) 23:30:15 437.345
ANTELSAT 30 Jul 23:24:09 23:28:14 30° 94° (E) 23:32:23 437.575/2403.000
ISS 30 Jul 23:27:09 23:30:21 53° 153° (SSE) 23:33:33 145.825
PHONESAT 2.4 30 Jul 23:28:32 23:31:09 20° 175° (S) 23:33:46 2401.200-2431.200
VERMONT LUNAR 30 Jul 23:39:24 23:40:50 12° 196° (SSW) 23:42:14 437.305
TISAT 1 30 Jul 23:40:35 23:42:55 15° 60° (ENE) 23:45:23 437.305
DUCHIFAT 1 30 Jul 23:44:13 23:47:00 17° 89° (E) 23:49:55 145.980
UWE-3 30 Jul 23:45:50 23:47:44 12° 275° (W) 23:49:28 435.000/436.395/437.385
QB50P1 30 Jul 23:46:11 23:49:11 19° 91° (E) 23:52:17 145.935-145.965
FUNcube-1 30 Jul 23:46:48 23:49:25 15° 273° (W) 23:51:56 145.935
NANOSAT C BR1 30 Jul 23:47:59 23:51:03 19° 91° (E) 23:54:11 145.865
M-CUBED/EXP-1 PRIME 30 Jul 23:48:06 23:52:53 66° 293° (WNW) 23:57:37 437.505
AISAT 30 Jul 23:56:19 00:00:39 53° 260° (W) 00:04:59 437.250
Cosmos 2491 30 Jul 23:56:57 00:05:37 63° 75° (ENE) 00:14:15 435.465 / 435.565
UKube-1 31 Jul 00:01:37 00:05:32 32° 264° (W) 00:09:24 .
BEESAT 3 31 Jul 00:14:55 00:18:02 22° 116° (ESE) 00:21:14 437.485
CUBEBUG 1 31 Jul 00:15:04 00:19:23 60° 259° (W) 00:23:41 437.445
UNISAT 6 31 Jul 00:15:19 00:20:01 86° 102° (ESE) 00:24:45 437.425
AUBIESAT-1 31 Jul 00:19:11 00:23:39 41° 298° (WNW) 00:28:03 437.475
HUMSAT D 31 Jul 00:23:35 00:25:54 14° 273° (W) 00:28:04 437.325/437.525
YUBILEINY 31 Jul 00:24:46 00:32:15 35° 84° (E) 00:39:57 435.215
POLYITAN 1 31 Jul 00:27:47 00:31:56 48° 99° (E) 00:36:07 437.675
DX 1 31 Jul 00:28:46 00:31:42 17° 270° (W) 00:34:32 434.975-435.025
50 SAT 31 Jul 00:31:59 00:34:53 19° 269° (W) 00:37:44 437.505
RS-15 31 Jul 00:32:13 00:43:09 63° 321° (NW) 00:54:35 29.354- 29.394
AIST 1 31 Jul 00:34:29 00:38:36 47° 266° (W) 00:42:41
VELOX 1 31 Jul 00:36:51 00:40:27 24° 267° (W) 00:43:59 145.980
ESTCUBE 1 31 Jul 00:42:17 00:46:17 30° 266° (W) 00:50:16 437.505/2401.250
POPSAT HIP 1 31 Jul 00:45:24 00:49:40 72° 102° (ESE) 00:53:56 437.405
QB50P2 31 Jul 00:52:42 00:56:59 88° 103° (ESE) 01:01:16 145.880/145.840
SPROUT 31 Jul 00:56:34 01:00:50 70° 258° (WSW) 01:05:07 437.525
BUGSAT 1 31 Jul 00:57:13 01:01:15 60° 101° (E) 01:05:18 437.445
AIST 2 31 Jul 00:57:53 00:59:29 12° 111° (ESE) 01:01:15 435.215
TIGRISAT 31 Jul 00:59:33 01:03:55 40° 292° (WNW) 01:08:18 435.000
ANTELSAT 31 Jul 01:00:45 01:05:05 38° 292° (WNW) 01:09:25 437.575/2403.000
ISS 31 Jul 01:03:35 01:06:48 56° 351° (N) 01:10:03 145.825
PHONESAT 2.4 31 Jul 01:06:05 01:08:26 17° 192° (SSW) 01:10:46 2401.200-2431.200
BEESAT 2 31 Jul 01:09:40 01:13:41 55° 124° (SE) 01:17:45 435.950
BEESAT 31 Jul 01:11:45 01:15:38 26° 63° (ENE) 01:19:35 436.000
TISAT 1 31 Jul 01:14:02 01:18:13 71° 257° (WSW) 01:22:24 437.305
DUCHIFAT 1 31 Jul 01:19:02 01:23:11 54° 288° (WNW) 01:27:20 145.980
QB50P1 31 Jul 01:21:14 01:25:22 50° 289° (WNW) 01:29:29 145.935-145.965
NANOSAT C BR1 31 Jul 01:23:03 01:27:10 48° 289° (WNW) 01:31:16 145.865
M-CUBED/EXP-1 PRIME 31 Jul 01:24:35 01:26:51 13° 311° (NW) 01:28:58 437.505
SWISSCUBE 31 Jul 01:31:25 01:35:51 39° 67° (ENE) 01:40:20 437.505
O/OREOS (USA 219) 31 Jul 01:38:59 01:41:20 14° 100° (E) 01:43:52 437.305
ITUPSAT 1 31 Jul 01:51:26 01:56:06 53° 70° (ENE) 02:00:49 437.325
BEESAT 3 31 Jul 01:51:41 01:55:41 53° 314° (NW) 01:59:43 437.485
UNISAT 6 31 Jul 01:53:29 01:56:13 15° 302° (WNW) 01:58:50 437.425
Cosmos 2491 31 Jul 01:54:26 02:02:03 35° 276° (W) 02:09:31 435.465 / 435.565
POLYITAN 1 31 Jul 02:04:18 02:07:34 21° 297° (WNW) 02:10:45 437.675
STARS 31 Jul 02:05:54 02:06:16 10° 55° (NE) 02:06:51 437.465
YUBILEINY 31 Jul 02:20:03 02:28:41 62° 286° (WNW) 02:37:23 435.215
POPSAT HIP 1 31 Jul 02:22:31 02:25:04 15° 300° (WNW) 02:27:30 437.405
KKS-1 31 Jul 02:25:52 02:29:20 23° 63° (ENE) 02:32:53 437.445
QB50P2 31 Jul 02:30:15 02:32:18 13° 302° (WNW) 02:34:11 145.880/145.840
AIST 2 31 Jul 02:33:10 02:37:26 86° 129° (SE) 02:41:44 435.215
BUGSAT 1 31 Jul 02:33:44 02:36:20 16° 299° (WNW) 02:38:50 437.445
ISS 31 Jul 02:40:14 02:43:29 63° 12° (NNE) 02:46:44 145.825
Oscar 19 31 Jul 02:41:12 02:46:12 47° 99° (E) 02:51:13 437.125/150
RS-15 31 Jul 02:48:00 02:58:14 37° 353° (N) 03:08:54 29.354- 29.394
BEESAT 2 31 Jul 02:48:28 02:52:00 26° 324° (NW) 02:55:32 435.950
BEESAT 31 Jul 02:48:36 02:53:15 48° 261° (W) 02:57:55 436.000
SWISSCUBE 31 Jul 03:09:35 03:13:49 30° 266° (W) 03:18:00 437.505
MOZHAYETS 4 31 Jul 03:10:08 03:10:50 10° 54° (NE) 03:11:46
JAS-2 31 Jul 03:10:09 03:15:23 20° 82° (E) 03:20:57 435.910
O/OREOS (USA 219) 31 Jul 03:15:43 03:20:12 74° 297° (WNW) 03:24:45 437.305
Cosmos 2504 31 Jul 03:23:26 03:30:18 52° 90° (E) 03:37:43 435.465 / 435.565
Gurwin Techsat 1B 31 Jul 03:29:48 03:34:51 42° 97° (E) 03:39:53 435.225
ITUPSAT 1 31 Jul 03:30:33 03:34:21 22° 269° (W) 03:38:02 437.325
BEESAT 3 31 Jul 03:32:10 03:34:32 15° 336° (NNW) 03:36:50 437.485
STARS 31 Jul 03:37:36 03:41:56 67° 73° (ENE) 03:46:18 437.465
ITAMSAT 1 31 Jul 03:59:20 04:04:31 65° 102° (ESE) 04:09:40 435.822/435.867
KKS-1 31 Jul 04:01:28 04:05:44 46° 261° (W) 04:10:01 437.445
AIST 2 31 Jul 04:13:14 04:16:33 21° 329° (NNW) 04:19:49 435.215
ISS 31 Jul 04:16:46 04:19:52 41° 211° (SSW) 04:22:57 145.825
Oscar 19 31 Jul 04:20:57 04:25:23 29° 297° (WNW) 04:29:44 437.125/150
YUBILEINY 31 Jul 04:22:24 04:27:51 17° 313° (NW) 04:32:59 435.215
BEESAT 2 31 Jul 04:30:35 04:31:25 10° 347° (NNW) 04:32:11 435.950
MOZHAYETS 4 31 Jul 04:42:38 04:47:14 63° 72° (ENE) 04:51:52
DANDE 31 Jul 04:50:24 04:52:12 15° 95° (E) 04:53:56 436.750
JAS-2 31 Jul 04:53:49 05:01:38 80° 103° (ESE) 05:09:30 435.910
HORYU 2 31 Jul 04:54:30 04:58:37 34° 96° (E) 05:02:44 437.375
O/OREOS (USA 219) 31 Jul 04:58:03 05:00:32 14° 320° (NW) 05:02:54 437.305
CUBESAT XI-V 31 Jul 04:59:32 05:01:19 12° 56° (NE) 05:03:17 437.345
RS-15 31 Jul 05:03:10 05:14:04 46° 25° (NNE) 05:25:32 29.354- 29.394
AO-7 31 Jul 05:03:24 05:11:18 45° 98° (E) 05:19:13 29.400- 29.500
GONETS M04 31 Jul 05:09:52 05:14:14 16° 73° (ENE) 05:19:06
Gurwin Techsat 1B 31 Jul 05:09:59 05:14:45 33° 296° (WNW) 05:19:26 435.225
Cosmos 2504 31 Jul 05:16:14 05:22:52 37° 294° (WNW) 05:29:53 435.465 / 435.565
STARS 31 Jul 05:16:17 05:18:54 15° 272° (W) 05:21:22 437.465
CUSAT 1 31 Jul 05:18:07 05:20:54 60° 101° (E) 05:23:30 437.405
ITAMSAT 1 31 Jul 05:39:37 05:43:37 22° 301° (WNW) 05:47:30 435.822/435.867
MOZHAYETS 4 31 Jul 06:21:46 06:24:56 18° 272° (W) 06:27:59
HORYU 2 31 Jul 06:31:12 06:35:13 31° 294° (WNW) 06:39:10 437.375
DANDE 31 Jul 06:32:48 06:35:13 21° 288° (WNW) 06:37:21 436.750
CUBESAT XI-V 31 Jul 06:33:22 06:38:02 76° 74° (ENE) 06:42:44 437.345
PRISM 31 Jul 06:33:56 06:37:11 22° 63° (ENE) 06:40:29 437.425
STRAND 1 31 Jul 06:35:29 06:40:00 33° 64° (ENE) 06:44:36 437.568
JAS-2 31 Jul 06:39:34 06:46:02 30° 303° (WNW) 06:52:29 435.910
BEESAT 3 31 Jul 06:51:34 06:53:49 14° 23° (NNE) 06:56:07 437.485
AO-7 31 Jul 06:56:16 07:04:18 52° 300° (WNW) 07:12:13 29.400- 29.500
CUTE-I 31 Jul 06:57:52 07:02:11 25° 91° (E) 07:06:34 437.470
GONETS M04 31 Jul 07:01:00 07:09:35 69° 94° (E) 07:18:13
RS-15 31 Jul 07:16:11 07:27:55 86° 233° (SW) 07:40:07 29.354- 29.394
Cosmos 2499 31 Jul 07:34:34 07:40:34 28° 81° (E) 07:47:07 435.465 / 435.565
AIST 2 31 Jul 07:35:24 07:37:04 12° 16° (NNE) 07:38:48 435.215
Cubesat XI-IV 31 Jul 07:41:01 07:46:17 56° 100° (E) 07:51:31 437.490
BEESAT 2 31 Jul 07:47:26 07:50:47 23° 34° (NE) 07:54:07 435.950
AUBIESAT-1 31 Jul 08:04:17 08:05:48 12° 48° (NE) 08:07:32 437.475
PRISM 31 Jul 08:08:22 08:12:23 43° 261° (W) 08:16:24 437.425
CUBESAT XI-V 31 Jul 08:13:23 08:16:06 15° 274° (W) 08:18:38 437.345
STRAND 1 31 Jul 08:14:17 08:19:09 40° 263° (W) 08:24:00 437.568
BEESAT 3 31 Jul 08:28:41 08:32:41 51° 45° (NE) 08:36:37 437.485
CUTE-I 31 Jul 08:37:25 08:42:37 54° 291° (WNW) 08:47:47 437.470
CANX-2 31 Jul 08:42:00 08:42:47 11° 84° (E) 08:43:50 2200.000
AO-7 31 Jul 08:50:23 08:55:22 17° 323° (NW) 09:00:07 29.400- 29.500
GONETS M04 31 Jul 08:59:32 09:07:15 33° 298° (WNW) 09:14:49
BRITE-PL 31 Jul 09:00:58 09:05:07 47° 99° (E) 09:09:33 437.365/2234.400
M-CUBED/EXP-1 PRIME 31 Jul 09:05:27 09:09:19 40° 62° (ENE) 09:13:32 437.505
PCSat 31 Jul 09:08:20 09:11:24 16° 106° (ESE) 09:14:41 145.827
DOVE 4 31 Jul 09:10:57 09:14:41 25° 93° (E) 09:18:40 437.250
AIST 2 31 Jul 09:13:02 09:16:53 33° 39° (NE) 09:20:43 435.215
GOMX 1 31 Jul 09:17:05 09:21:18 42° 98° (E) 09:25:48 467.674
Cubesat XI-IV 31 Jul 09:21:42 09:26:06 26° 299° (WNW) 09:30:24 437.490
BEESAT 2 31 Jul 09:25:07 09:29:12 65° 235° (SW) 09:33:11 435.950
Cosmos 2499 31 Jul 09:25:35 09:33:02 69° 284° (WNW) 09:41:08 435.465 / 435.565
CINEMA 3 31 Jul 09:28:18 09:31:30 19° 89° (E) 09:34:55 145.822/145.860
RS-15 31 Jul 09:29:37 09:39:05 28° 256° (WSW) 09:48:21 29.354- 29.394
AUBIESAT-1 31 Jul 09:35:34 09:39:40 68° 67° (ENE) 09:44:07 437.475
HO-68 31 Jul 09:41:28 09:48:17 45° 98° (E) 09:55:08 435.675
UNISAT 6 31 Jul 09:43:31 09:46:20 17° 60° (ENE) 09:49:19 437.425
COMPASS 1 31 Jul 09:52:34 09:56:22 31° 95° (E) 10:00:09 437.405
UWE-3 31 Jul 09:53:31 09:55:29 13° 85° (E) 09:57:41 435.000/436.395/437.385
SO-50 31 Jul 09:54:35 09:58:23 24° 115° (ESE) 10:02:20 436.795
O/OREOS (USA 219) 31 Jul 10:04:43 10:06:26 12° 37° (NE) 10:08:19 437.305
SEEDS 31 Jul 10:05:42 10:09:54 53° 99° (E) 10:14:05 437.485
CUBEBUG 2 31 Jul 10:05:49 10:09:16 21° 90° (E) 10:12:53 437.445
CUTE 1.7 + AOD 2 31 Jul 10:06:54 10:11:13 67° 101° (ESE) 10:15:29 437.475
BEESAT 3 31 Jul 10:07:11 10:10:21 22° 244° (WSW) 10:13:23 437.485
Oscar 11 31 Jul 10:07:54 10:11:03 20° 90° (E) 10:14:17 145.826/435.025
POPSAT HIP 1 31 Jul 10:09:10 10:10:50 12° 58° (ENE) 10:12:41 437.405
CANX-2 31 Jul 10:15:07 10:19:29 89° 100° (E) 10:23:47 2200.000
QB50P2 31 Jul 10:15:52 10:18:10 15° 60° (ENE) 10:20:36 145.880/145.840
CUTE-I 31 Jul 10:20:18 10:21:40 11° 310° (NW) 10:22:48 437.470
TIGRISAT 31 Jul 10:25:48 10:29:48 38° 68° (ENE) 10:33:58 435.000
ANTELSAT 31 Jul 10:27:05 10:31:09 40° 68° (ENE) 10:35:23 437.575/2403.000
DELFI C3 31 Jul 10:28:15 10:31:17 20° 91° (E) 10:34:23 145.870
YUBILEINY 31 Jul 10:28:44 10:35:17 23° 54° (NE) 10:42:08 435.215
AAUSAT CUBESAT 2 31 Jul 10:34:38 10:38:52 73° 101° (E) 10:43:03 437.432
BRITE-PL 31 Jul 10:40:10 10:43:29 22° 296° (WNW) 10:46:51 437.365/2234.400
DUCHIFAT 1 31 Jul 10:40:25 10:43:40 23° 64° (ENE) 10:46:59 145.980
M-CUBED/EXP-1 PRIME 31 Jul 10:40:50 10:44:17 25° 263° (W) 10:47:56 437.505
QB50P1 31 Jul 10:42:47 10:46:10 25° 65° (ENE) 10:49:38 145.935-145.965
NANOSAT C BR1 31 Jul 10:44:23 10:47:47 25° 65° (ENE) 10:51:15 145.865
DOVE 4 31 Jul 10:48:21 10:52:37 43° 290° (WNW) 10:57:06 437.250
PCSat 31 Jul 10:48:42 10:54:07 88° 132° (SE) 10:59:37 145.827
AIST 2 31 Jul 10:51:35 10:55:32 39° 239° (WSW) 10:59:23 435.215
GOMX 1 31 Jul 10:55:41 10:59:19 25° 294° (WNW) 11:03:03 467.674
CINEMA 3 31 Jul 11:04:32 11:09:06 61° 287° (WNW) 11:13:50 145.822/145.860
ZACube-1 31 Jul 11:06:25 11:10:49 47° 99° (E) 11:15:15 437.345
AUBIESAT-1 31 Jul 11:12:26 11:14:58 15° 268° (W) 11:17:28 437.475
Cosmos 2491 31 Jul 11:12:32 11:16:11 14° 71° (ENE) 11:20:23 435.465 / 435.565
UNISAT 6 31 Jul 11:18:18 11:22:39 67° 258° (WSW) 11:27:07 437.425
Cosmos 2499 31 Jul 11:23:08 11:28:12 18° 311° (NW) 11:33:10 435.465 / 435.565
POLYITAN 1 31 Jul 11:24:30 11:28:39 62° 73° (ENE) 11:32:50 437.675
UWE-3 31 Jul 11:28:05 11:32:41 85° 285° (WNW) 11:37:20 435.000/436.395/437.385
COMPASS 1 31 Jul 11:28:16 11:31:59 30° 293° (WNW) 11:35:38 437.405
FUNcube-1 31 Jul 11:28:29 11:33:01 76° 102° (ESE) 11:37:36 145.935
